Regional Weather Roundup
Issued by NWS

Home | Current Version | Previous Version | Graphics & Text | Print | Product List | Glossary On
Versions: 1 2 3 4 5 6 7 8 9 10 11 12 13 14 15 16 17 18 19 20 21 22 23 24 25 26 27 28 29 30 31 32 33 34 35 36 37 38 39 40 41 42 43 44 45 46 47 48 49 50
000
ASUS43 KMKX 170810
RWRWI

WISCONSIN REGIONAL WEATHER ROUNDUP
NATIONAL WEATHER SERVICE MILWAUKEE/SULLIVAN WI
200 AM CST WED JAN 17 2018

NOTE: "FAIR" INDICATES FEW OR NO CLOUDS BELOW 12,000 FEET WITH NO
SIGNIFICANT WEATHER AND/OR OBSTRUCTIONS TO VISIBILITY.

WIZ001-002-006>008-014>016-023>028-170900-
NORTHWEST WISCONSIN

CITY           SKY/WX    TMP DP  RH WIND       PRES   REMARKS
SUPERIOR ARPT  FAIR       4  -4  71 SW12      30.34F WCI -12
ASHLAND        MOCLDY     6  -3  66 SW14      30.33F WCI -11
HAYWARD        FAIR       1  -4  79 SW6       30.36F WCI -10
SIREN          FAIR       1  -4  80 SW6       30.40F WCI -11
CUMBERLAND     FAIR      -6  -9  84 SW7       30.40S WCI -20
RICE LAKE      FAIR      -3  -6  85 CALM      30.44F
CHETEK         FAIR      -5  -8  86 CALM      30.43F
LADYSMITH      FAIR      -2  -6  83 SW6       30.42S WCI -14
EAU CLAIRE     FAIR      -5  -8  87 SW7       30.47F WCI -19
MENOMONIE      FAIR      -6 -10  82 CALM      30.48F
NEW RICHMOND   FAIR      -4  -9  80 SW7       30.45S WCI -18
OSCEOLA        FAIR      -1  -6  82 S3        30.48S
$$

WIZ003>005-009-010-017-018-170900-
NORTH CENTRAL WISCONSIN

CITY           SKY/WX    TMP DP  RH WIND       PRES   REMARKS
MANITOWISH WTR FAIR       1  -2  84 SW8       30.28S WCI -12
ARBOR VITAE    CLOUDY     4   0  83 SW5       30.29F WCI  -5
WOODRUFF       CLOUDY     4   0  83 SW5       30.29F WCI  -5
RHINELANDER    FAIR       1  -2  87 SW8       30.31F WCI -13
EAGLE RIVER    FAIR       3  -1  81 SW8       30.27F WCI -10
LAND O LAKES   CLOUDY     6   1  81 SW5       30.27F WCI  -3
PHILLIPS       FAIR      -2  -5  87 SW6       30.33F WCI -14
TOMAHAWK       FAIR       0  -4  85 CALM      30.35F
MEDFORD        FAIR      -4  -8  84 W6        30.37F WCI -16
MERRILL        FAIR      -1  -5  83 W5        30.38F WCI -11
$$

WIZ029-030-035-036-043>047-170900-
CENTRAL WISCONSIN

CITY           SKY/WX    TMP DP  RH WIND       PRES   REMARKS
WAUSAU         FAIR      -1  -5  82 W8        30.39R WCI -15
MOSINEE        FAIR       0  -4  85 W8        30.42F WCI -15
MARSHFIELD     FAIR      -2  -6  83 W7        30.42S WCI -15
STEVENS POINT  FAIR      -1  -4  86 W5        30.45R WCI -11
WAUPACA        FAIR       6   0  75 W5        30.46S WCI  -3
WAUTOMA        FAIR       0  -4  83 W8        30.48S WCI -14
WISC RAPIDS    FAIR       0  -5  79 W8        30.48R WCI -14
CAMP DOUGLAS   FAIR      -3  -6  84 CALM      30.48F
$$

WIZ011>013-019>022-031-037>040-048>050-170900-
NORTHEAST WISCONSIN

CITY           SKY/WX    TMP DP  RH WIND       PRES   REMARKS
ANTIGO         FAIR       1  -3  87 W7        30.34F WCI -12
SHAWANO        FAIR       8   3  80 W7        30.42S WCI  -3
OCONTO         FAIR       8   5  88 W7        30.41S WCI  -4
STURGEON BAY   FAIR       9   6  88 SW10      30.40  WCI  -5
GREEN BAY      FAIR       7   2  80 SW9       30.43F WCI  -7
MANITOWOC      FAIR       9   5  84 W12       30.44F WCI  -6
APPLETON       FAIR       5   0  78 W12       30.41F WCI -11
CLINTONVILLE   FAIR       5   0  78 W10       30.44R WCI -10
OSHKOSH        FAIR       5   1  83 W8        30.46R WCI  -8
$$

WIZ032>034-041-042-053>061-170900-
SOUTHWEST WISCONSIN

CITY           SKY/WX    TMP DP  RH WIND       PRES   REMARKS
LA CROSSE      FAIR      -1  -6  79 S8        30.55  WCI -15
SPARTA         FAIR      -2  -4  88 CALM      30.52S
VIROQUA        FAIR      -3  -5  90 W8        30.47F WCI -18
BOSCOBEL       FAIR      -1  -6  79 SW6       30.58R WCI -13
PRAIRIE DU CHI FAIR      -1  -6  80 W5        30.58S WCI -12
PLATTEVILLE    FAIR      -3  -5  90 W8        30.54R WCI -17
$$

WIZ056-057-062-063-064-067-068-170900-
SOUTH CENTRAL WISCONSIN

CITY           SKY/WX    TMP DP  RH WIND       PRES   REMARKS
REEDSBURG      FAIR       2  -1  85 SW5       30.50R WCI  -7
BARABOO/DELLS  FAIR       1  -2  85 W5        30.49R WCI  -8
LONE ROCK      FAIR       0  -3  87 W6        30.55S WCI -12
MINERAL POINT  FAIR       0  -4  85 W6        30.50R WCI -12
MADISON        FAIR       4   0  83 CALM      30.51R
MIDDLETON      FAIR       4   1  87 W5        30.51R WCI  -5
WATERTOWN      FAIR       0  -1  94 CALM      30.50R
MONROE         FAIR       3   0  85 W14       30.49S WCI -15
JANESVILLE     FAIR       1  -2  85 CALM      30.53R
$$

WIZ051-052-058>065-066-070>072-170900-
SOUTHEAST WISCONSIN

CITY           SKY/WX    TMP DP  RH WIND       PRES   REMARKS
MILWAUKEE      FAIR      13   7  77 W9        30.50R WCI   1
WAUKESHA       FAIR       7   3  85 W6        30.50R WCI  -3
MILWAUKEE/TIMM FAIR       9   3  78 W6        30.50S WCI  -1
RACINE         FAIR       9   5  84 W7        30.51S WCI  -2
BURLINGTON     FAIR       4  -1  83 SW5       30.51R WCI  -6
KENOSHA        FAIR       6   2  83 W6        30.50R WCI  -4
FOND DU LAC    FAIR       6   0  76 SW3       30.48R
SHEBOYGAN      FAIR       6   4  91 W8        30.46R WCI  -7
WEST BEND      FAIR       9   5  85 W8        30.47R WCI  -4
JUNEAU         FAIR       1  -1  90 SW3       30.49S
$$

LSZ147-162-170900-
LAKE SUPERIOR

STATION/POSITION TIME  TEMP    WIND        PRES    WAVE
                       AIR SEA DIR/SP/G            HT/PER
                 (UTC) (F)     (DEG/KT/KT) (MB)    (FT/S)
DEVILS ISLAND    0800   13     220/ 21/ 29 1026.2F
SAXON HARBOR     0730   10     200/  9/ 13 1026.4F
$$

LMZ867-665-643>646-170900-
LAKE MICHIGAN

STATION/POSITION TIME  TEMP    WIND        PRES    WAVE
                       AIR SEA DIR/SP/G            HT/PER
                 (UTC) (F)     (DEG/KT/KT) (MB)    (FT/S)
NORTHPORT PIER   0752   11     230/ 15/ 36 1028.1F
KEWAUNEE LAKESHO 0748   10     270/  6/  9 1029.1F
SHEBOYGAN LAKESH 0800   11     260/ 14/ 16 1032.7R
PORT WASHINGTON  0740   11     280/  6/  9 1033.2S
MILWAUKEE LAKESH 0750   13     290/ 12/ 14   N/A
KENOSHA   LAKESH 0800   10     280/ 10/ 15 1032.8
$$

TC  - TEMPERATURE IN CELSIUS
VSB - VISIBILITY IN STATUTE MILES
WCI - WIND CHILL INDEX
HX  - HEAT INDEX





USA.gov is the U.S. government's official web portal to all federal, state and local government web resources and services.